This is the latest recevied weather packets stored in our database for station/object VR2OT-10. If no packets are shown the sender has not sent any weather packets the latest 10 day(s).
| Time | Temp. | Humidity | Pressure | Rain* | Wind** | Luminosity | Snow |
|---|---|---|---|---|---|---|---|
| 1777940237 | 18.89° C | 91% | 1015.3 hPa | - | 4.02 m/s, 90° | - | - |
| 1777939338 | 18.89° C | 90% | 1014.9 hPa | - | 4.92 m/s, 90° | - | - |
| 1777938438 | 18.89° C | 91% | 1014.7 hPa | - | 5.36 m/s, 135° | - | - |
| 1777937538 | 18.89° C | 92% | 1014.5 hPa | - | 4.47 m/s, 90° | - | - |
| 1777936638 | 19.44° C | 92% | 1014.7 hPa | - | 3.58 m/s, 90° | - | - |
| 1777935738 | 19.44° C | 92% | 1014.6 hPa | - | 4.02 m/s, 90° | - | - |
| 1777933938 | 19.44° C | 93% | 1014.4 hPa | - | 4.47 m/s, 90° | - | - |
| 1777933037 | 19.44° C | 92% | 1014.3 hPa | - | 3.58 m/s, 135° | - | - |
| 1777932137 | 20° C | 86% | 1014.4 hPa | - | 4.92 m/s, 135° | - | - |
| 1777931238 | 20° C | 83% | 1014.3 hPa | - | 4.92 m/s, 135° | - | - |
| 1777930339 | 20° C | 84% | 1013.9 hPa | - | 4.47 m/s, 90° | - | - |
| 1777929438 | 20° C | 83% | 1014 hPa | - | 4.02 m/s, 90° | - | - |
| 1777928539 | 20° C | 83% | 1014.1 hPa | - | 3.58 m/s, 90° | - | - |
| 1777927638 | 20° C | 83% | 1014.1 hPa | - | 4.02 m/s, 90° | - | - |
| 1777926737 | 20° C | 83% | 1013.8 hPa | - | 4.47 m/s, 90° | - | - |
| 1777925837 | 20.56° C | 84% | 1013.9 hPa | - | 4.02 m/s, 90° | - | - |
| 1777924938 | 20.56° C | 84% | 1014 hPa | - | 4.47 m/s, 90° | - | - |
| 1777924037 | 20.56° C | 84% | 1013.8 hPa | - | 4.47 m/s, 90° | - | - |
| 1777923138 | 21.11° C | 85% | 1013.8 hPa | - | 3.58 m/s, 90° | - | - |
| 1777921337 | 21.11° C | 84% | 1014.1 hPa | - | 4.02 m/s, 90° | - | - |
| 1777920438 | 21.11° C | 85% | 1014.2 hPa | - | 4.02 m/s, 90° | - | - |
| 1777919539 | 21.67° C | 87% | 1014.2 hPa | - | 4.02 m/s, 90° | - | - |
| 1777916839 | 22.22° C | 84% | 1014.8 hPa | - | 3.58 m/s, 90° | - | - |
| 1777915038 | 22.22° C | 81% | 1015.1 hPa | - | 4.02 m/s, 90° | - | - |
| 1777914138 | 22.22° C | 80% | 1015.1 hPa | - | 6.26 m/s, 90° | - | - |
* Rain since midnight (hover to see other rain measurements)
** Current wind speed in m/s (hover to see current wind gust speed)